Location: Goldmont Forest
(38.0233°N, 120.2524°W)
Time: 07:56:24
(UTC+00:00)

IRIDIUM 106 - Pass Details

Date: 07 November 2024
Orbit: 776 x 779 km, 86.4° (Epoch: 06 December)

Event Time Altitude Azimuth Distance (km) Brightness Sun altitude
Rises 13:46:31 0° 12° (NNE) 3,266 7.6 -9.7°
Reaches altitude 10° 13:49:23 10° 27° (NNE) 2,333 7.0 -9.2°
Maximum altitude 13:53:27 23° 79° (ENE) 1,621 6.9 -8.4°
Drops below altitude 10° 13:57:29 10° 130° (SE) 2,320 8.0 -7.7°
Sets 14:00:18 0° 145° (SE) 3,242 8.4 -7.1°
